Time,TemperatureF,DewpointF,PressureIn,WindDirection,WindDirectionDegrees,WindSpeedMPH,WindSpeedGustMPH,Humidity,HourlyPrecipIn,Conditions,Clouds,dailyrainin,SoftwareType,DateUTC
2015-05-25 00:02:00,54.0,-99.9,-100.00,NE,56,2.0,16.0,-999,-99.99,,,-99.99,,2015-05-25 05:02:00,
2015-05-25 00:11:00,55.0,-99.9,-100.00,ESE,105,3.0,3.0,-999,-99.99,,,-99.99,,2015-05-25 05:11:00,
2015-05-25 00:21:00,55.0,-99.9,-100.00,ESE,105,3.0,3.0,-999,-99.99,,,-99.99,,2015-05-25 05:21:00,
2015-05-25 00:32:00,55.0,-99.9,-100.00,ESE,105,3.0,3.0,-999,-99.99,,,-99.99,,2015-05-25 05:32:00,
2015-05-25 00:43:00,55.0,-99.9,-100.00,North,358,2.0,10.0,-999,-99.99,,,-99.99,,2015-05-25 05:43:00,
2015-05-25 00:52:00,55.0,-99.9,-100.00,North,358,2.0,10.0,-999,-99.99,,,-99.99,,2015-05-25 05:52:00,
2015-05-25 01:02:00,55.0,-99.9,-100.00,North,358,2.0,10.0,-999,-99.99,,,-99.99,,2015-05-25 06:02:00,
2015-05-25 01:11:00,53.0,-99.9,-100.00,NE,35,5.0,6.0,-999,-99.99,,,-99.99,,2015-05-25 06:11:00,
2015-05-25 01:22:00,55.0,-99.9,-100.00,North,358,2.0,10.0,-999,-99.99,,,-99.99,,2015-05-25 06:22:00,
2015-05-25 01:32:00,55.0,-99.9,-100.00,North,358,2.0,10.0,-999,-99.99,,,-99.99,,2015-05-25 06:32:00,
2015-05-25 01:52:00,51.0,-99.9,-100.00,NE,40,7.0,8.0,-999,-99.99,,,-99.99,,2015-05-25 06:52:00,
2015-05-25 02:11:00,51.0,-99.9,-100.00,NE,40,5.0,7.0,-999,-99.99,,,-99.99,,2015-05-25 07:11:00,
2015-05-25 02:32:00,51.0,-99.9,-100.00,NE,40,7.0,8.0,-999,-99.99,,,-99.99,,2015-05-25 07:32:00,
2015-05-25 02:40:00,50.0,-99.9,-100.00,NNE,21,1.0,2.0,-999,-99.99,,,-99.99,,2015-05-25 07:40:00,
2015-05-25 02:43:00,51.0,-99.9,-100.00,NE,40,7.0,8.0,-999,-99.99,,,-99.99,,2015-05-25 07:43:00,
2015-05-25 02:52:00,51.0,-99.9,-100.00,NE,40,7.0,8.0,-999,-99.99,,,-99.99,,2015-05-25 07:52:00,
2015-05-25 03:11:00,50.0,-99.9,-100.00,NNE,21,1.0,2.0,-999,-99.99,,,-99.99,,2015-05-25 08:11:00,
2015-05-25 03:21:00,50.0,-99.9,-100.00,NNE,21,1.0,2.0,-999,-99.99,,,-99.99,,2015-05-25 08:21:00,
2015-05-25 03:31:00,50.0,-99.9,-100.00,NNE,21,1.0,2.0,-999,-99.99,,,-99.99,,2015-05-25 08:31:00,
2015-05-25 03:40:00,50.0,-99.9,-100.00,WSW,241,0.0,2.0,-999,-99.99,,,-99.99,,2015-05-25 08:40:00,
2015-05-25 04:12:00,50.0,-99.9,-100.00,WSW,241,0.0,2.0,-999,-99.99,,,-99.99,,2015-05-25 09:12:00,
2015-05-25 04:21:00,50.0,-99.9,-100.00,WSW,241,0.0,2.0,-999,-99.99,,,-99.99,,2015-05-25 09:21:00,
2015-05-25 04:31:00,50.0,-99.9,-100.00,WSW,241,0.0,2.0,-999,-99.99,,,-99.99,,2015-05-25 09:31:00,
2015-05-25 04:40:00,50.0,-99.9,-100.00,SSW,193,0.0,3.0,-999,-99.99,,,-99.99,,2015-05-25 09:40:00,
2015-05-25 05:11:00,50.0,-99.9,-100.00,SSW,193,0.0,3.0,-999,-99.99,,,-99.99,,2015-05-25 10:11:00,
2015-05-25 05:22:00,50.0,-99.9,-100.00,SSW,193,0.0,3.0,-999,-99.99,,,-99.99,,2015-05-25 10:22:00,
2015-05-25 05:31:00,50.0,-99.9,-100.00,SSW,193,0.0,3.0,-999,-99.99,,,-99.99,,2015-05-25 10:31:00,
2015-05-25 05:40:00,51.0,-99.9,-100.00,SE,145,1.0,5.0,-999,-99.99,,,-99.99,,2015-05-25 10:40:00,
2015-05-25 06:12:00,51.0,-99.9,-100.00,SE,145,1.0,5.0,-999,-99.99,,,-99.99,,2015-05-25 11:12:00,
2015-05-25 06:22:00,51.0,-99.9,-100.00,SE,145,1.0,5.0,-999,-99.99,,,-99.99,,2015-05-25 11:22:00,
2015-05-25 06:32:00,51.0,-99.9,-100.00,SE,145,1.0,5.0,-999,-99.99,,,-99.99,,2015-05-25 11:32:00,
2015-05-25 06:40:00,50.0,-99.9,-100.00,North,-9999,0.0,3.0,-999,-99.99,,,-99.99,,2015-05-25 11:40:00,
2015-05-25 07:11:00,50.0,-99.9,-100.00,North,-9999,0.0,3.0,-999,-99.99,,,-99.99,,2015-05-25 12:11:00,
2015-05-25 07:22:00,50.0,-99.9,-100.00,North,-9999,0.0,3.0,-999,-99.99,,,-99.99,,2015-05-25 12:22:00,
2015-05-25 08:11:00,49.0,-99.9,-100.00,SE,142,2.0,4.0,-999,-99.99,,,-99.99,,2015-05-25 13:11:00,
2015-05-25 08:21:00,49.0,-99.9,-100.00,SE,142,2.0,4.0,-999,-99.99,,,-99.99,,2015-05-25 13:21:00,